Home   Weather   Mulhouse   Past weeks

Flag for France Past Weather in Mulhouse, Alsace, France — Yesterday and Last 2 Weeks

Now
34 °F

Clear.


Feels Like: 28 °F
Forecast: 40 / 50 °F
Wind: 7 mph from South

Location: Bale-Mulhouse

Current Time: Feb 27, 2017 at 6:01:49 am

Latest Report: Feb 27, 2017 at 5:00 am


Visibility: 10 mi

Pressure: 29.92 "Hg

Humidity: 81%

Dew Point: 28 °F

Location of MulhouseLocation

Past Weather in Mulhouse — Graph

°F

Mulhouse Temperature Yesterday

Maximum temperature yesterday: 54 °F (at 3:00 pm)
Minimum temperature yesterday: 34 °F (at 6:30 am)
Average temperature yesterday: 41 °F

High & Low Weather Summary for the Past Weeks

 TemperatureHumidityPressure
High68 °F (Feb 23, 1:30 pm)100% (Feb 12, 7:30 pm)30.57 "Hg (Feb 12, 7:30 pm)
Low27 °F (Feb 19, 3:30 am)26% (Feb 23, 2:00 pm)29.62 "Hg (Feb 23, 4:30 pm)
Average43 °F78%30.21 "Hg
* Reported Feb 12 4:00 am — Feb 27 4:30 am, Mulhouse, Weather by CustomWeather, © 2017

Note: Actual official high and low records may vary slightly from our data, if they occured in-between our weather recording intervals... More about our weather records

Advertising

Mulhouse Weather History for the Previous 24 Hours

Scroll right to see more
 ConditionsComfort  
Time TempWeatherWind HumidityBarometerVisibility
4:30 am
Mon, Feb 27
34 °FClear.5 mph87%29.92 "Hg10 mi
4:00 am34 °FClear.5 mph87%29.92 "Hg10 mi
3:30 am36 °FClear.7 mph81%29.95 "Hg10 mi
3:00 am36 °FClear.6 mph81%29.95 "Hg10 mi
2:30 am34 °FClear.5 mph87%29.98 "Hg10 mi
2:00 am36 °FPassing clouds.6 mph87%29.98 "HgN/A
1:30 am34 °FPassing clouds.6 mph87%29.98 "HgN/A
1:00 am36 °FClear.6 mph87%29.98 "Hg10 mi
12:30 am36 °FClear.5 mph87%29.98 "Hg10 mi
12:00 am36 °FPassing clouds.6 mph87%29.98 "HgN/A
11:30 pm
Sun, Feb 26
36 °FPassing clouds.5 mph81%30.01 "HgN/A
11:00 pm37 °FClear.6 mph81%30.01 "Hg10 mi
10:30 pm36 °FClear.5 mph87%30.01 "Hg10 mi
10:00 pm37 °FClear.2 mph75%30.01 "Hg10 mi
9:30 pm37 °FClear.3 mph81%30.01 "Hg10 mi
9:00 pm39 °FClear.2 mph75%30.01 "Hg10 mi
8:30 pm41 °FClear.5 mph70%30.01 "Hg10 mi
7:30 pm43 °FClear.2 mph66%30.01 "Hg10 mi
7:00 pm46 °FClear.5 mph57%30.01 "Hg10 mi
6:30 pm46 °FClear.3 mph57%30.01 "Hg10 mi
6:00 pm50 °FSunny.5 mph50%30.01 "Hg10 mi
5:30 pm52 °FSunny.3 mph47%30.01 "Hg10 mi
5:00 pm52 °FSunny.5 mph47%30.01 "Hg10 mi
4:30 pm54 °FPassing clouds.3 mph44%30.01 "HgN/A
4:00 pm52 °FPassing clouds.3 mph47%30.01 "HgN/A
3:30 pm52 °FPassing clouds.5 mph47%30.01 "HgN/A
3:00 pm54 °FPassing clouds.5 mph44%30.04 "HgN/A
2:30 pm52 °FSunny.2 mph47%30.04 "Hg10 mi
2:00 pm52 °FSunny.2 mph47%30.07 "Hg10 mi
1:30 pm50 °FSunny.3 mph50%30.07 "Hg10 mi
1:00 pm50 °FPassing clouds.3 mph58%30.07 "HgN/A
12:30 pm46 °FPassing clouds.5 mph62%30.09 "HgN/A
12:00 pm46 °FSunny.3 mph57%30.09 "Hg10 mi
11:30 am45 °FPassing clouds.5 mph61%30.09 "HgN/A
11:00 am45 °FPassing clouds.7 mph57%30.09 "HgN/A
10:30 am43 °FPassing clouds.7 mph71%30.09 "HgN/A
10:00 am41 °FSunny.7 mph76%30.09 "Hg10 mi
9:30 am39 °FPassing clouds.6 mph75%30.12 "HgN/A
9:00 am37 °FPassing clouds.5 mph81%30.12 "HgN/A
8:30 am36 °FPassing clouds.6 mph87%30.09 "HgN/A
8:00 am36 °FSunny.7 mph81%30.09 "Hg10 mi
7:30 am34 °FSunny.5 mph87%30.09 "Hg10 mi
7:00 am34 °FClear.5 mph87%30.07 "Hg10 mi
6:30 am34 °FPassing clouds.6 mph87%30.07 "HgN/A
6:00 am36 °FPassing clouds.6 mph81%30.09 "HgN/A
Weather by CustomWeather, © 2017

See weather overviewHow to use our weather pages